TimeEST,TemperatureF,Dew PointF,Humidity,Sea Level PressureIn,VisibilityMPH,Wind Direction,Wind SpeedMPH,Gust SpeedMPH,PrecipitationIn,Events,Conditions,WindDirDegrees,DateUTC
12:54 AM,30.0,27.0,88,30.20,-9999.0,North,-9999.0,-,N/A,,Unknown,0,2012-11-21 05:54:00
1:54 AM,30.0,26.1,85,30.20,-9999.0,North,-9999.0,-,N/A,,Unknown,0,2012-11-21 06:54:00
2:54 AM,30.0,27.0,88,30.20,-9999.0,North,-9999.0,-,N/A,,Unknown,0,2012-11-21 07:54:00
3:54 AM,30.0,26.1,85,30.21,-9999.0,North,-9999.0,-,N/A,,Unknown,0,2012-11-21 08:54:00
4:54 AM,28.9,25.0,85,30.23,-9999.0,North,-9999.0,-,N/A,,Unknown,0,2012-11-21 09:54:00
5:54 AM,28.0,26.1,92,30.24,-9999.0,North,-9999.0,-,N/A,,Unknown,0,2012-11-21 10:54:00
6:54 AM,27.0,25.0,92,30.27,-9999.0,North,-9999.0,-,N/A,,Unknown,0,2012-11-21 11:54:00
7:54 AM,27.0,25.0,92,30.30,-9999.0,North,-9999.0,-,N/A,,Unknown,0,2012-11-21 12:54:00
8:54 AM,28.9,26.1,89,30.30,-9999.0,North,-9999.0,-,N/A,,Unknown,0,2012-11-21 13:54:00
9:54 AM,34.0,28.0,79,30.28,-9999.0,North,-9999.0,-,N/A,,Unknown,0,2012-11-21 14:54:00
10:54 AM,39.9,28.0,63,30.25,-9999.0,North,-9999.0,-,N/A,,Unknown,0,2012-11-21 15:54:00
11:54 AM,45.0,27.0,49,30.22,-9999.0,North,-9999.0,-,N/A,,Unknown,0,2012-11-21 16:54:00
12:54 PM,46.9,24.1,41,30.21,-9999.0,North,-9999.0,-,N/A,,Unknown,0,2012-11-21 17:54:00
1:54 PM,48.9,24.1,38,30.20,-9999.0,North,-9999.0,-,N/A,,Unknown,0,2012-11-21 18:54:00
2:54 PM,48.9,24.1,38,30.20,-9999.0,North,-9999.0,-,N/A,,Unknown,0,2012-11-21 19:54:00
3:54 PM,46.9,23.0,39,30.22,-9999.0,North,-9999.0,-,N/A,,Unknown,0,2012-11-21 20:54:00
4:54 PM,37.9,26.1,62,30.24,-9999.0,North,-9999.0,-,N/A,,Unknown,0,2012-11-21 21:54:00
5:54 PM,34.0,25.0,70,30.25,-9999.0,North,-9999.0,-,N/A,,Unknown,0,2012-11-21 22:54:00
6:54 PM,30.9,24.1,76,30.27,-9999.0,North,-9999.0,-,N/A,,Unknown,0,2012-11-21 23:54:00
7:54 PM,28.9,23.0,78,30.27,-9999.0,North,-9999.0,-,N/A,,Unknown,0,2012-11-22 00:54:00
8:54 PM,28.0,23.0,81,30.27,-9999.0,North,-9999.0,-,N/A,,Unknown,0,2012-11-22 01:54:00
9:54 PM,27.0,23.0,85,30.27,-9999.0,North,-9999.0,-,N/A,,Unknown,0,2012-11-22 02:54:00
10:54 PM,26.1,21.9,84,30.27,-9999.0,North,-9999.0,-,N/A,,Unknown,0,2012-11-22 03:54:00
11:54 PM,25.0,21.9,88,30.27,-9999.0,North,-9999.0,-,N/A,,Unknown,0,2012-11-22 04:54:00